Year,Month,Day,Hour,Minute,Value (Times are PST for temperature in C)
2021,08,13,00,00,21.90
2021,08,13,00,01,21.90
2021,08,13,00,02,21.80
2021,08,13,00,03,21.80
2021,08,13,00,04,21.80
2021,08,13,00,05,21.80
2021,08,13,00,06,21.70
2021,08,13,00,07,21.70
2021,08,13,00,08,21.60
2021,08,13,00,09,21.60
2021,08,13,00,10,21.60
2021,08,13,00,11,21.60
2021,08,13,00,12,21.70
2021,08,13,00,13,21.70
2021,08,13,00,14,21.70
2021,08,13,00,15,21.70
2021,08,13,00,16,21.70
2021,08,13,00,17,21.70
2021,08,13,00,18,21.70
2021,08,13,00,19,21.70
2021,08,13,00,20,21.70
2021,08,13,00,21,21.70
2021,08,13,00,22,21.70
2021,08,13,00,23,21.70
2021,08,13,00,24,21.70
2021,08,13,00,25,21.70
2021,08,13,00,26,21.70
2021,08,13,00,27,21.70
2021,08,13,00,28,21.70
2021,08,13,00,29,21.70
2021,08,13,00,30,21.70
2021,08,13,00,31,21.70
2021,08,13,00,32,21.70
2021,08,13,00,33,21.70
2021,08,13,00,34,21.70
2021,08,13,00,35,21.70
2021,08,13,00,36,21.80
2021,08,13,00,37,21.80
2021,08,13,00,38,21.80
2021,08,13,00,39,21.80
2021,08,13,00,40,21.80
2021,08,13,00,41,21.80
2021,08,13,00,42,21.80
2021,08,13,00,43,21.80
2021,08,13,00,44,21.80
2021,08,13,00,45,21.80
2021,08,13,00,46,21.80
2021,08,13,00,47,21.80
2021,08,13,00,48,21.80
2021,08,13,00,49,21.80
2021,08,13,00,50,21.90
2021,08,13,00,51,21.80
2021,08,13,00,52,21.90
2021,08,13,00,53,21.90
2021,08,13,00,54,21.90
2021,08,13,00,55,21.80
2021,08,13,00,56,21.80
2021,08,13,00,57,21.80
2021,08,13,00,58,21.80
2021,08,13,00,59,21.70
2021,08,13,01,00,21.70
2021,08,13,01,01,21.70
2021,08,13,01,02,21.70
2021,08,13,01,03,21.60
2021,08,13,01,04,21.60
2021,08,13,01,05,21.60
2021,08,13,01,06,21.60
2021,08,13,01,07,21.60
2021,08,13,01,08,21.60
2021,08,13,01,09,21.50
2021,08,13,01,10,21.50
2021,08,13,01,11,21.40
2021,08,13,01,12,21.40
2021,08,13,01,13,21.40
2021,08,13,01,14,21.40
2021,08,13,01,15,21.30
2021,08,13,01,16,21.30
2021,08,13,01,17,21.30
2021,08,13,01,18,21.20
2021,08,13,01,19,21.20
2021,08,13,01,20,21.20
2021,08,13,01,21,21.20
2021,08,13,01,22,21.10
2021,08,13,01,23,21.10
2021,08,13,01,24,21.10
2021,08,13,01,25,21.20
2021,08,13,01,26,21.10
2021,08,13,01,27,21.10
2021,08,13,01,28,21.10
2021,08,13,01,29,21.10
2021,08,13,01,30,21.10
2021,08,13,01,31,21.10
2021,08,13,01,32,21.10
2021,08,13,01,33,21.10
2021,08,13,01,34,21.10
2021,08,13,01,35,21.10
2021,08,13,01,36,21.10
2021,08,13,01,37,21.10
2021,08,13,01,38,21.10
2021,08,13,01,39,21.10
2021,08,13,01,40,21.10
2021,08,13,01,41,21.10
2021,08,13,01,42,21.10
2021,08,13,01,43,21.10
2021,08,13,01,44,21.10
2021,08,13,01,45,21.10
2021,08,13,01,46,21.10
2021,08,13,01,47,21.10
2021,08,13,01,48,21.10
2021,08,13,01,49,21.00
2021,08,13,01,50,21.00
2021,08,13,01,51,21.00
2021,08,13,01,52,21.00
2021,08,13,01,53,21.00
2021,08,13,01,54,21.00
2021,08,13,01,55,21.00
2021,08,13,01,56,21.00
2021,08,13,01,57,21.00
2021,08,13,01,58,20.90
2021,08,13,01,59,20.90
2021,08,13,02,00,20.90
2021,08,13,02,01,20.90
2021,08,13,02,02,20.80
2021,08,13,02,03,20.80
2021,08,13,02,04,20.80
2021,08,13,02,05,20.80
2021,08,13,02,06,20.90
2021,08,13,02,07,21.00
2021,08,13,02,08,21.00
2021,08,13,02,09,21.10
2021,08,13,02,10,21.20
2021,08,13,02,11,21.30
2021,08,13,02,12,21.30
2021,08,13,02,13,21.40
2021,08,13,02,14,21.40
2021,08,13,02,15,21.40
2021,08,13,02,16,21.50
2021,08,13,02,17,21.50
2021,08,13,02,18,21.60
2021,08,13,02,19,21.60
2021,08,13,02,20,21.60
2021,08,13,02,21,21.70
2021,08,13,02,22,21.70
2021,08,13,02,23,21.80
2021,08,13,02,24,21.80
2021,08,13,02,25,21.80
2021,08,13,02,26,21.80
2021,08,13,02,27,21.80
2021,08,13,02,28,21.80
2021,08,13,02,29,21.80
2021,08,13,02,30,21.80
2021,08,13,02,31,21.80
2021,08,13,02,32,21.80
2021,08,13,02,33,21.80
2021,08,13,02,34,21.80
2021,08,13,02,35,21.80
2021,08,13,02,36,21.80
2021,08,13,02,37,21.80
2021,08,13,02,38,21.80
2021,08,13,02,39,21.80
2021,08,13,02,40,21.70
2021,08,13,02,41,21.70
2021,08,13,02,42,21.60
2021,08,13,02,43,21.60
2021,08,13,02,44,21.50
2021,08,13,02,45,21.50
2021,08,13,02,46,21.40
2021,08,13,02,47,21.40
2021,08,13,02,48,21.30
2021,08,13,02,49,21.30
2021,08,13,02,50,21.20
2021,08,13,02,51,21.20
2021,08,13,02,52,21.10
2021,08,13,02,53,21.00
2021,08,13,02,54,21.00
2021,08,13,02,55,20.90
2021,08,13,02,56,20.90
2021,08,13,02,57,20.90
2021,08,13,02,58,20.90
2021,08,13,02,59,20.90
2021,08,13,03,00,20.90
2021,08,13,03,01,20.80
2021,08,13,03,02,20.80
2021,08,13,03,03,20.80
2021,08,13,03,04,20.80
2021,08,13,03,05,20.80
2021,08,13,03,06,20.80
2021,08,13,03,07,20.80
2021,08,13,03,08,20.80
2021,08,13,03,09,20.70
2021,08,13,03,10,20.70
2021,08,13,03,11,20.70
2021,08,13,03,12,20.70
2021,08,13,03,13,20.70
2021,08,13,03,14,20.70
2021,08,13,03,15,20.60
2021,08,13,03,16,20.60
2021,08,13,03,17,20.60
2021,08,13,03,18,20.60
2021,08,13,03,19,20.60
2021,08,13,03,20,20.60
2021,08,13,03,21,20.60
2021,08,13,03,22,20.60
2021,08,13,03,23,20.60
2021,08,13,03,24,20.50
2021,08,13,03,25,20.50
2021,08,13,03,26,20.50
2021,08,13,03,27,20.50
2021,08,13,03,28,20.50
2021,08,13,03,29,20.40
2021,08,13,03,30,20.40
2021,08,13,03,31,20.40
2021,08,13,03,32,20.40
2021,08,13,03,33,20.40
2021,08,13,03,34,20.40
2021,08,13,03,35,20.50
2021,08,13,03,36,20.50
2021,08,13,03,37,20.40
2021,08,13,03,38,20.40
2021,08,13,03,39,20.40
2021,08,13,03,40,20.40
2021,08,13,03,41,20.40
2021,08,13,03,42,20.50
2021,08,13,03,43,20.50
2021,08,13,03,44,20.50
2021,08,13,03,45,20.50
2021,08,13,03,46,20.50
2021,08,13,03,47,20.50
2021,08,13,03,48,20.40
2021,08,13,03,49,20.40
2021,08,13,03,50,20.40
2021,08,13,03,51,20.30
2021,08,13,03,52,20.30
2021,08,13,03,53,20.30
2021,08,13,03,54,20.30
2021,08,13,03,55,20.30
2021,08,13,03,56,20.20
2021,08,13,03,57,20.20
2021,08,13,03,58,20.20
2021,08,13,03,59,20.10
2021,08,13,04,00,20.10
2021,08,13,04,01,20.10
2021,08,13,04,02,20.00
2021,08,13,04,03,19.90
2021,08,13,04,04,19.90
2021,08,13,04,05,19.90
2021,08,13,04,06,19.80
2021,08,13,04,07,19.80
2021,08,13,04,08,19.70
2021,08,13,04,09,19.70
2021,08,13,04,10,19.70
2021,08,13,04,11,19.70
2021,08,13,04,12,19.70
2021,08,13,04,13,19.60
2021,08,13,04,14,19.60
2021,08,13,04,15,19.60
2021,08,13,04,16,19.60
2021,08,13,04,17,19.60
2021,08,13,04,18,19.70
2021,08,13,04,19,19.70
2021,08,13,04,20,19.80
2021,08,13,04,21,19.80
2021,08,13,04,22,19.90
2021,08,13,04,23,20.00
2021,08,13,04,24,20.00
2021,08,13,04,25,20.10
2021,08,13,04,26,20.10
2021,08,13,04,27,20.20
2021,08,13,04,28,20.20
2021,08,13,04,29,20.20
2021,08,13,04,30,20.30
2021,08,13,04,31,20.30
2021,08,13,04,32,20.30
2021,08,13,04,33,20.30
2021,08,13,04,34,20.40
2021,08,13,04,35,20.40
2021,08,13,04,36,20.40
2021,08,13,04,37,20.40
2021,08,13,04,38,20.40
2021,08,13,04,39,20.40
2021,08,13,04,40,20.40
2021,08,13,04,41,20.30
2021,08,13,04,42,20.30
2021,08,13,04,43,20.30
2021,08,13,04,44,20.20
2021,08,13,04,45,20.20
2021,08,13,04,46,20.20
2021,08,13,04,47,20.20
2021,08,13,04,48,20.30
2021,08,13,04,49,20.40
2021,08,13,04,50,20.50
2021,08,13,04,51,20.70
2021,08,13,04,52,20.80
2021,08,13,04,53,20.90
2021,08,13,04,54,21.00
2021,08,13,04,55,21.10
2021,08,13,04,56,21.10
2021,08,13,04,57,21.20
2021,08,13,04,58,21.20
2021,08,13,04,59,21.30
2021,08,13,05,00,21.30
2021,08,13,05,01,21.30
2021,08,13,05,02,21.30
2021,08,13,05,03,21.30
2021,08,13,05,04,21.30
2021,08,13,05,05,21.20
2021,08,13,05,06,21.20
2021,08,13,05,07,21.10
2021,08,13,05,08,21.00
2021,08,13,05,09,20.90
2021,08,13,05,10,20.80
2021,08,13,05,11,20.70
2021,08,13,05,12,20.70
2021,08,13,05,13,20.60
2021,08,13,05,14,20.40
2021,08,13,05,15,20.30
2021,08,13,05,16,20.20
2021,08,13,05,17,20.10
2021,08,13,05,18,20.00
2021,08,13,05,19,19.90
2021,08,13,05,20,19.80
2021,08,13,05,21,19.80
2021,08,13,05,22,19.70
2021,08,13,05,23,19.70
2021,08,13,05,24,19.60
2021,08,13,05,25,19.60
2021,08,13,05,26,19.50
2021,08,13,05,27,19.40
2021,08,13,05,28,19.40
2021,08,13,05,29,19.40
2021,08,13,05,30,19.40
2021,08,13,05,31,19.30
2021,08,13,05,32,19.30
2021,08,13,05,33,19.30
2021,08,13,05,34,19.30
2021,08,13,05,35,19.30
2021,08,13,05,36,19.30
2021,08,13,05,37,19.30
2021,08,13,05,38,19.30
2021,08,13,05,39,19.30
2021,08,13,05,40,19.30
2021,08,13,05,41,19.30
2021,08,13,05,42,19.30
2021,08,13,05,43,19.20
2021,08,13,05,44,19.10
2021,08,13,05,45,19.10
2021,08,13,05,46,19.00
2021,08,13,05,47,18.90
2021,08,13,05,48,18.80
2021,08,13,05,49,18.70
2021,08,13,05,50,18.50
2021,08,13,05,51,18.40
2021,08,13,05,52,18.30
2021,08,13,05,53,18.20
2021,08,13,05,54,18.20
2021,08,13,05,55,18.10
2021,08,13,05,56,18.00
2021,08,13,05,57,18.00
2021,08,13,05,58,17.90
2021,08,13,05,59,17.90
2021,08,13,06,00,17.90
2021,08,13,06,01,17.90
2021,08,13,06,02,17.90
2021,08,13,06,03,17.90
2021,08,13,06,04,17.90
2021,08,13,06,05,17.90
2021,08,13,06,06,17.90
2021,08,13,06,07,17.90
2021,08,13,06,08,17.90
2021,08,13,06,09,17.80
2021,08,13,06,10,17.80
2021,08,13,06,11,17.80
2021,08,13,06,12,17.80
2021,08,13,06,13,17.70
2021,08,13,06,14,17.70
2021,08,13,06,15,17.70
2021,08,13,06,16,17.70
2021,08,13,06,17,17.70
2021,08,13,06,18,17.70
2021,08,13,06,19,17.70
2021,08,13,06,20,17.70
2021,08,13,06,21,17.70
2021,08,13,06,22,17.70
2021,08,13,06,23,17.60
2021,08,13,06,24,17.60
2021,08,13,06,25,17.60
2021,08,13,06,26,17.60
2021,08,13,06,27,17.60
2021,08,13,06,28,17.50
2021,08,13,06,29,17.50
2021,08,13,06,30,17.40
2021,08,13,06,31,17.40
2021,08,13,06,32,17.40
2021,08,13,06,33,17.40
2021,08,13,06,34,17.40
2021,08,13,06,35,17.40
2021,08,13,06,36,17.40
2021,08,13,06,37,17.30
2021,08,13,06,38,17.30
2021,08,13,06,39,17.30
2021,08,13,06,40,17.30
2021,08,13,06,41,17.30
2021,08,13,06,42,17.30
2021,08,13,06,43,17.30
2021,08,13,06,44,17.30
2021,08,13,06,45,17.30
2021,08,13,06,46,17.30
2021,08,13,06,47,17.30
2021,08,13,06,48,17.20
2021,08,13,06,49,17.20
2021,08,13,06,50,17.20
2021,08,13,06,51,17.20
2021,08,13,06,52,17.20
2021,08,13,06,53,17.20
2021,08,13,06,54,17.10
2021,08,13,06,55,17.10
2021,08,13,06,56,17.10
2021,08,13,06,57,17.10
2021,08,13,06,58,17.10
2021,08,13,06,59,17.10
2021,08,13,07,00,17.10
2021,08,13,07,01,17.10
2021,08,13,07,02,17.10
2021,08,13,07,03,17.10
2021,08,13,07,04,17.10
2021,08,13,07,05,17.10
2021,08,13,07,06,17.10
2021,08,13,07,07,17.10
2021,08,13,07,08,17.10
2021,08,13,07,09,17.10
2021,08,13,07,10,17.10
2021,08,13,07,11,17.20
2021,08,13,07,12,17.20
2021,08,13,07,13,17.20
2021,08,13,07,14,17.20
2021,08,13,07,15,17.20
2021,08,13,07,16,17.20
2021,08,13,07,17,17.30
2021,08,13,07,18,17.30
2021,08,13,07,19,17.30
2021,08,13,07,20,17.30
2021,08,13,07,21,17.30
2021,08,13,07,22,17.30
2021,08,13,07,23,17.30
2021,08,13,07,24,17.30
2021,08,13,07,25,17.30
2021,08,13,07,26,17.30
2021,08,13,07,27,17.30
2021,08,13,07,28,17.30
2021,08,13,07,29,17.30
2021,08,13,07,30,17.30
2021,08,13,07,31,17.30
2021,08,13,07,32,17.30
2021,08,13,07,33,17.40
2021,08,13,07,34,17.40
2021,08,13,07,35,17.40
2021,08,13,07,36,17.50
2021,08,13,07,37,17.50
2021,08,13,07,38,17.60
2021,08,13,07,39,17.60
2021,08,13,07,40,17.70
2021,08,13,07,41,17.70
2021,08,13,07,42,17.80
2021,08,13,07,43,17.80
2021,08,13,07,44,17.90
2021,08,13,07,45,17.90
2021,08,13,07,46,18.00
2021,08,13,07,47,18.10
2021,08,13,07,48,18.10
2021,08,13,07,49,18.20
2021,08,13,07,50,18.20
2021,08,13,07,51,18.30
2021,08,13,07,52,18.30
2021,08,13,07,53,18.40
2021,08,13,07,54,18.40
2021,08,13,07,55,18.50
2021,08,13,07,56,18.50
2021,08,13,07,57,18.60
2021,08,13,07,58,18.60
2021,08,13,07,59,18.60
2021,08,13,08,00,18.70
2021,08,13,08,01,18.70
2021,08,13,08,02,18.70
2021,08,13,08,03,18.80
2021,08,13,08,04,18.80
2021,08,13,08,05,18.80
2021,08,13,08,06,18.80
2021,08,13,08,07,18.90
2021,08,13,08,08,18.90
2021,08,13,08,09,19.00
2021,08,13,08,10,19.00
2021,08,13,08,11,19.10
2021,08,13,08,12,19.10
2021,08,13,08,13,19.10
2021,08,13,08,14,19.20
2021,08,13,08,15,19.20
2021,08,13,08,16,19.20
2021,08,13,08,17,19.30
2021,08,13,08,18,19.30
2021,08,13,08,19,19.40
2021,08,13,08,20,19.40
2021,08,13,08,21,19.40
2021,08,13,08,22,19.50
2021,08,13,08,23,19.60
2021,08,13,08,24,19.60
2021,08,13,08,25,19.70
2021,08,13,08,26,19.80
2021,08,13,08,27,19.80
2021,08,13,08,28,19.90
2021,08,13,08,29,19.90
2021,08,13,08,30,20.00
2021,08,13,08,31,20.00
2021,08,13,08,32,20.00
2021,08,13,08,33,20.00
2021,08,13,08,34,20.00
2021,08,13,08,35,19.90
2021,08,13,08,36,19.90
2021,08,13,08,37,19.90
2021,08,13,08,38,19.90
2021,08,13,08,39,19.80
2021,08,13,08,40,19.90
2021,08,13,08,41,19.90
2021,08,13,08,42,19.90
2021,08,13,08,43,19.90
2021,08,13,08,44,19.90
2021,08,13,08,45,20.00
2021,08,13,08,46,20.10
2021,08,13,08,47,20.10
2021,08,13,08,48,20.20
2021,08,13,08,49,20.30
2021,08,13,08,50,20.30
2021,08,13,08,51,20.40
2021,08,13,08,52,20.50
2021,08,13,08,53,20.60
2021,08,13,08,54,20.60
2021,08,13,08,55,20.70
2021,08,13,08,56,20.80
2021,08,13,08,57,20.90
2021,08,13,08,58,20.90
2021,08,13,08,59,21.00
2021,08,13,09,00,21.10
2021,08,13,09,01,21.10
2021,08,13,09,02,21.20
2021,08,13,09,03,21.20
2021,08,13,09,04,21.30
2021,08,13,09,05,21.30
2021,08,13,09,06,21.40
2021,08,13,09,07,21.50
2021,08,13,09,08,21.60
2021,08,13,09,09,21.70
2021,08,13,09,10,21.70
2021,08,13,09,11,21.80
2021,08,13,09,12,21.90
2021,08,13,09,13,22.00
2021,08,13,09,14,22.00
2021,08,13,09,15,22.10
2021,08,13,09,16,22.10
2021,08,13,09,17,22.20
2021,08,13,09,18,22.30
2021,08,13,09,19,22.30
2021,08,13,09,20,22.40
2021,08,13,09,21,22.40
2021,08,13,09,22,22.50
2021,08,13,09,23,22.60
2021,08,13,09,24,22.60
2021,08,13,09,25,22.70
2021,08,13,09,26,22.70
2021,08,13,09,27,22.70
2021,08,13,09,28,22.60
2021,08,13,09,29,22.60
2021,08,13,09,30,22.50
2021,08,13,09,31,22.40
2021,08,13,09,32,22.40
2021,08,13,09,33,22.40
2021,08,13,09,34,22.40
2021,08,13,09,35,22.50
2021,08,13,09,36,22.50
2021,08,13,09,37,22.40
2021,08,13,09,38,22.30
2021,08,13,09,39,22.20
2021,08,13,09,40,22.10
2021,08,13,09,41,22.00
2021,08,13,09,42,22.00
2021,08,13,09,43,21.90
2021,08,13,09,44,21.90
2021,08,13,09,45,21.80
2021,08,13,09,46,21.80
2021,08,13,09,47,21.80
2021,08,13,09,48,21.80
2021,08,13,09,49,21.80
2021,08,13,09,50,21.80
2021,08,13,09,51,21.80
2021,08,13,09,52,21.80
2021,08,13,09,53,21.80
2021,08,13,09,54,21.80
2021,08,13,09,55,21.80
2021,08,13,09,56,21.80
2021,08,13,09,57,21.80
2021,08,13,09,58,21.80
2021,08,13,09,59,21.90
2021,08,13,10,00,21.90
2021,08,13,10,01,22.00
2021,08,13,10,02,22.10
2021,08,13,10,03,22.10
2021,08,13,10,04,22.10
2021,08,13,10,05,22.20
2021,08,13,10,06,22.20
2021,08,13,10,07,22.20
2021,08,13,10,08,22.30
2021,08,13,10,09,22.40
2021,08,13,10,10,22.40
2021,08,13,10,11,22.50
2021,08,13,10,12,22.60
2021,08,13,10,13,22.60
2021,08,13,10,14,22.70
2021,08,13,10,15,22.80
2021,08,13,10,16,22.80
2021,08,13,10,17,22.90
2021,08,13,10,18,22.90
2021,08,13,10,19,22.80
2021,08,13,10,20,22.90
2021,08,13,10,21,22.90
2021,08,13,10,22,22.90
2021,08,13,10,23,22.80
2021,08,13,10,24,22.80
2021,08,13,10,25,22.70
2021,08,13,10,26,22.60
2021,08,13,10,27,22.50
2021,08,13,10,28,22.40
2021,08,13,10,29,22.30
2021,08,13,10,30,22.30
2021,08,13,10,31,22.30
2021,08,13,10,32,22.20
2021,08,13,10,33,22.20
2021,08,13,10,34,22.20
2021,08,13,10,35,22.20
2021,08,13,10,36,22.30
2021,08,13,10,37,22.40
2021,08,13,10,38,22.50
2021,08,13,10,39,22.60
2021,08,13,10,40,22.60
2021,08,13,10,41,22.60
2021,08,13,10,42,22.60
2021,08,13,10,43,22.60
2021,08,13,10,44,22.70
2021,08,13,10,45,22.70
2021,08,13,10,46,22.80
2021,08,13,10,47,22.80
2021,08,13,10,48,22.80
2021,08,13,10,49,22.90
2021,08,13,10,50,22.90
2021,08,13,10,51,23.00
2021,08,13,10,52,23.00
2021,08,13,10,53,23.10
2021,08,13,10,54,23.10
2021,08,13,10,55,23.20
2021,08,13,10,56,23.30
2021,08,13,10,57,23.50
2021,08,13,10,58,23.60
2021,08,13,10,59,23.70
2021,08,13,11,00,23.80
2021,08,13,11,01,23.80
2021,08,13,11,02,23.80
2021,08,13,11,03,23.90
2021,08,13,11,04,23.90
2021,08,13,11,05,23.90
2021,08,13,11,06,23.90
2021,08,13,11,07,24.00
2021,08,13,11,08,24.00
2021,08,13,11,09,24.00
2021,08,13,11,10,24.00
2021,08,13,11,11,24.00
2021,08,13,11,12,24.00
2021,08,13,11,13,23.90
2021,08,13,11,14,23.80
2021,08,13,11,15,23.80
2021,08,13,11,16,23.70
2021,08,13,11,17,23.70
2021,08,13,11,18,23.70
2021,08,13,11,19,23.70
2021,08,13,11,20,23.70
2021,08,13,11,21,23.70
2021,08,13,11,22,23.70
2021,08,13,11,23,23.70
2021,08,13,11,24,23.80
2021,08,13,11,25,23.90
2021,08,13,11,26,24.00
2021,08,13,11,27,24.10
2021,08,13,11,28,24.10
2021,08,13,11,29,24.10
2021,08,13,11,30,24.10
2021,08,13,11,31,24.00
2021,08,13,11,32,23.90
2021,08,13,11,33,23.80
2021,08,13,11,34,23.80
2021,08,13,11,35,23.80
2021,08,13,11,36,23.80
2021,08,13,11,37,23.80
2021,08,13,11,38,23.80
2021,08,13,11,39,23.80
2021,08,13,11,40,23.80
2021,08,13,11,41,23.80
2021,08,13,11,42,23.70
2021,08,13,11,43,23.70
2021,08,13,11,44,23.70
2021,08,13,11,45,23.80
2021,08,13,11,46,23.80
2021,08,13,11,47,23.90
2021,08,13,11,48,24.00
2021,08,13,11,49,24.20
2021,08,13,11,50,24.40
2021,08,13,11,51,24.50
2021,08,13,11,52,24.60
2021,08,13,11,53,24.50
2021,08,13,11,54,24.40
2021,08,13,11,55,24.40
2021,08,13,11,56,24.50
2021,08,13,11,57,24.60
2021,08,13,11,58,24.60
2021,08,13,11,59,24.60
2021,08,13,12,00,24.60
2021,08,13,12,01,24.60
2021,08,13,12,02,24.60
2021,08,13,12,03,24.50
2021,08,13,12,04,24.50
2021,08,13,12,05,24.50
2021,08,13,12,06,24.40
2021,08,13,12,07,24.30
2021,08,13,12,08,24.20
2021,08,13,12,09,24.20
2021,08,13,12,10,24.20
2021,08,13,12,11,24.10
2021,08,13,12,12,24.00
2021,08,13,12,13,24.00
2021,08,13,12,14,23.90
2021,08,13,12,15,23.90
2021,08,13,12,16,23.80
2021,08,13,12,17,23.80
2021,08,13,12,18,23.70
2021,08,13,12,19,23.70
2021,08,13,12,20,23.60
2021,08,13,12,21,23.60
2021,08,13,12,22,23.50
2021,08,13,12,23,23.40
2021,08,13,12,24,23.40
2021,08,13,12,25,23.40
2021,08,13,12,26,23.40
2021,08,13,12,27,23.50
2021,08,13,12,28,23.50
2021,08,13,12,29,23.60
2021,08,13,12,30,23.70
2021,08,13,12,31,23.60
2021,08,13,12,32,23.70
2021,08,13,12,33,23.70
2021,08,13,12,34,23.80
2021,08,13,12,35,23.90
2021,08,13,12,36,24.00
2021,08,13,12,37,24.20
2021,08,13,12,38,24.30
2021,08,13,12,39,24.30
2021,08,13,12,40,24.30
2021,08,13,12,41,24.30
2021,08,13,12,42,24.30
2021,08,13,12,43,24.40
2021,08,13,12,44,24.50
2021,08,13,12,45,24.70
2021,08,13,12,46,24.80
2021,08,13,12,47,24.90
2021,08,13,12,48,24.90
2021,08,13,12,49,25.00
2021,08,13,12,50,25.10
2021,08,13,12,51,25.30
2021,08,13,12,52,25.40
2021,08,13,12,53,25.50
2021,08,13,12,54,25.60
2021,08,13,12,55,25.70
2021,08,13,12,56,25.80
2021,08,13,12,57,25.70
2021,08,13,12,58,25.70
2021,08,13,12,59,25.70
2021,08,13,13,00,25.70
2021,08,13,13,01,25.70
2021,08,13,13,02,25.70
2021,08,13,13,03,25.80
2021,08,13,13,04,25.80
2021,08,13,13,05,25.90
2021,08,13,13,06,26.00
2021,08,13,13,07,26.10
2021,08,13,13,08,26.30
2021,08,13,13,09,26.40
2021,08,13,13,10,26.60
2021,08,13,13,11,26.70
2021,08,13,13,12,26.80
2021,08,13,13,13,26.80
2021,08,13,13,14,26.90
2021,08,13,13,15,27.00
2021,08,13,13,16,27.00
2021,08,13,13,17,27.30
2021,08,13,13,18,27.40
2021,08,13,13,19,27.40
2021,08,13,13,20,27.50
2021,08,13,13,21,27.60
2021,08,13,13,22,27.60
2021,08,13,13,23,27.60
2021,08,13,13,24,27.70
2021,08,13,13,25,27.60
2021,08,13,13,26,27.60
2021,08,13,13,27,27.50
2021,08,13,13,28,27.50
2021,08,13,13,29,27.60
2021,08,13,13,30,27.70
2021,08,13,13,31,27.70
2021,08,13,13,32,27.80
2021,08,13,13,33,27.80
2021,08,13,13,34,27.90
2021,08,13,13,35,27.90
2021,08,13,13,36,28.00
2021,08,13,13,37,28.10
2021,08,13,13,38,28.00
2021,08,13,13,39,28.10
2021,08,13,13,40,28.10
2021,08,13,13,41,28.10
2021,08,13,13,42,28.20
2021,08,13,13,43,28.20
2021,08,13,13,44,28.30
2021,08,13,13,45,28.30
2021,08,13,13,46,28.30
2021,08,13,13,47,28.30
2021,08,13,13,48,28.40
2021,08,13,13,49,28.50
2021,08,13,13,50,28.50
2021,08,13,13,51,28.40
2021,08,13,13,52,28.40
2021,08,13,13,53,28.40
2021,08,13,13,54,28.40
2021,08,13,13,55,28.30
2021,08,13,13,56,28.30
2021,08,13,13,57,28.20
2021,08,13,13,58,28.10
2021,08,13,13,59,28.00
2021,08,13,14,00,28.00
2021,08,13,14,01,27.80
2021,08,13,14,02,27.60
2021,08,13,14,03,27.50
2021,08,13,14,04,27.40
2021,08,13,14,05,27.30
2021,08,13,14,06,27.20
2021,08,13,14,07,27.00
2021,08,13,14,08,26.90
2021,08,13,14,09,26.70
2021,08,13,14,10,26.60
2021,08,13,14,11,26.60
2021,08,13,14,12,26.50
2021,08,13,14,13,26.40
2021,08,13,14,14,26.20
2021,08,13,14,15,26.00
2021,08,13,14,16,25.70
2021,08,13,14,17,25.50
2021,08,13,14,18,25.40
2021,08,13,14,19,25.30
2021,08,13,14,20,25.30
2021,08,13,14,21,25.30
2021,08,13,14,22,25.10
2021,08,13,14,23,24.90
2021,08,13,14,24,24.70
2021,08,13,14,25,24.60
2021,08,13,14,26,24.60
2021,08,13,14,27,24.70
2021,08,13,14,28,24.60
2021,08,13,14,29,24.60
2021,08,13,14,30,24.60
2021,08,13,14,31,24.50
2021,08,13,14,32,24.40
2021,08,13,14,33,24.40
2021,08,13,14,34,24.30
2021,08,13,14,35,24.10
2021,08,13,14,36,23.90
2021,08,13,14,37,23.80
2021,08,13,14,38,23.60
2021,08,13,14,39,23.40
2021,08,13,14,40,23.40
2021,08,13,14,41,23.30
2021,08,13,14,42,23.40
2021,08,13,14,43,23.40
2021,08,13,14,44,23.40
2021,08,13,14,45,23.40
2021,08,13,14,46,23.40
2021,08,13,14,47,23.40
2021,08,13,14,48,23.40
2021,08,13,14,49,23.40
2021,08,13,14,50,23.40
2021,08,13,14,51,23.40
2021,08,13,14,52,23.40
2021,08,13,14,53,23.30
2021,08,13,14,54,23.30
2021,08,13,14,55,23.30
2021,08,13,14,56,23.20
2021,08,13,14,57,23.10
2021,08,13,14,58,23.00
2021,08,13,14,59,22.90
2021,08,13,15,00,22.90
2021,08,13,15,01,22.90
2021,08,13,15,02,23.00
2021,08,13,15,03,23.10
2021,08,13,15,04,23.20
2021,08,13,15,05,23.20
2021,08,13,15,06,23.20
2021,08,13,15,07,23.10
2021,08,13,15,08,23.10
2021,08,13,15,09,23.10
2021,08,13,15,10,23.10
2021,08,13,15,11,23.10
2021,08,13,15,12,23.20
2021,08,13,15,13,23.20
2021,08,13,15,14,23.40
2021,08,13,15,15,23.40
2021,08,13,15,16,23.50
2021,08,13,15,17,23.50
2021,08,13,15,18,23.40
2021,08,13,15,19,23.40
2021,08,13,15,20,23.40
2021,08,13,15,21,23.40
2021,08,13,15,22,23.30
2021,08,13,15,23,23.20
2021,08,13,15,24,23.20
2021,08,13,15,25,23.10
2021,08,13,15,26,23.10
2021,08,13,15,27,23.00
2021,08,13,15,28,22.90
2021,08,13,15,29,22.90
2021,08,13,15,30,22.80
2021,08,13,15,31,22.60
2021,08,13,15,32,22.40
2021,08,13,15,33,22.20
2021,08,13,15,34,21.90
2021,08,13,15,35,21.80
2021,08,13,15,36,21.60
2021,08,13,15,37,21.40
2021,08,13,15,38,21.20
2021,08,13,15,39,21.00
2021,08,13,15,40,20.90
2021,08,13,15,41,20.80
2021,08,13,15,42,20.80
2021,08,13,15,43,20.90
2021,08,13,15,44,20.90
2021,08,13,15,45,20.80
2021,08,13,15,46,20.80
2021,08,13,15,47,20.80
2021,08,13,15,48,20.70
2021,08,13,15,49,20.70
2021,08,13,15,50,20.80
2021,08,13,15,51,20.80
2021,08,13,15,52,20.80
2021,08,13,15,53,20.80
2021,08,13,15,54,20.80
2021,08,13,15,55,20.80
2021,08,13,15,56,20.80
2021,08,13,15,57,20.90
2021,08,13,15,58,20.90
2021,08,13,15,59,20.90
2021,08,13,16,00,20.90
2021,08,13,16,01,20.80
2021,08,13,16,02,20.90
2021,08,13,16,03,20.90
2021,08,13,16,04,21.00
2021,08,13,16,05,21.10
2021,08,13,16,06,21.10
2021,08,13,16,07,21.10
2021,08,13,16,08,21.10
2021,08,13,16,09,21.10
2021,08,13,16,10,21.00
2021,08,13,16,11,21.00
2021,08,13,16,12,20.80
2021,08,13,16,13,20.80
2021,08,13,16,14,20.70
2021,08,13,16,15,20.80
2021,08,13,16,16,21.00
2021,08,13,16,17,21.10
2021,08,13,16,18,21.20
2021,08,13,16,19,21.30
2021,08,13,16,20,21.30
2021,08,13,16,21,21.40
2021,08,13,16,22,21.30
2021,08,13,16,23,21.20
2021,08,13,16,24,21.10
2021,08,13,16,25,21.00
2021,08,13,16,26,21.00
2021,08,13,16,27,20.90
2021,08,13,16,28,20.80
2021,08,13,16,29,20.70
2021,08,13,16,30,20.60
2021,08,13,16,31,20.50
2021,08,13,16,32,20.30
2021,08,13,16,33,20.30
2021,08,13,16,34,20.20
2021,08,13,16,35,20.10
2021,08,13,16,36,20.00
2021,08,13,16,37,20.00
2021,08,13,16,38,19.90
2021,08,13,16,39,19.90
2021,08,13,16,40,19.80
2021,08,13,16,41,19.60
2021,08,13,16,42,19.40
2021,08,13,16,43,19.20
2021,08,13,16,44,18.90
2021,08,13,16,45,18.80
2021,08,13,16,46,18.70
2021,08,13,16,47,18.60
2021,08,13,16,48,18.50
2021,08,13,16,49,18.50
2021,08,13,16,50,18.50
2021,08,13,16,51,18.50
2021,08,13,16,52,18.50
2021,08,13,16,53,18.60
2021,08,13,16,54,18.60
2021,08,13,16,55,18.60
2021,08,13,16,56,18.50
2021,08,13,16,57,18.50
2021,08,13,16,58,18.40
2021,08,13,16,59,18.30
2021,08,13,17,00,18.30
2021,08,13,17,01,18.20
2021,08,13,17,02,18.20
2021,08,13,17,03,18.10
2021,08,13,17,04,18.10
2021,08,13,17,05,18.00
2021,08,13,17,06,17.90
2021,08,13,17,07,17.90
2021,08,13,17,08,17.90
2021,08,13,17,09,17.90
2021,08,13,17,10,17.80
2021,08,13,17,11,17.70
2021,08,13,17,12,17.70
2021,08,13,17,13,17.70
2021,08,13,17,14,17.70
2021,08,13,17,15,17.70
2021,08,13,17,16,17.70
2021,08,13,17,17,17.60
2021,08,13,17,18,17.50
2021,08,13,17,19,17.50